Date String (YYYY-MM-DD hh:mm:ss) UTC,Instrument flags,absolute air pressure of the measurement (hPa),sample flow rate (lpm),inlet stack bypass flow (lpm),air temperature of the measurement (°C),ambient temperature measured by the external sensor (°C),aerosol sample conditioner tube jacket temperature (°C),OPC LED temperature (°C),internal box temperature (°C),relative humidity of the measurement (%),span deviation,mass concentration of particles derived from Lorenz-Mie calculation of OPC scattering (μg/m³),mass concentration of particles derived from Lorenz-Mie calculation of OPC scattering (μg/m³),mass concentration of particles derived from Lorenz-Mie calculation of OPC scattering (μg/m³)
DateTimeUTC,F1_M11,P_M11,Q1_M11,Q2_M11,T1_M11,T2_M11,T3_M11,T4_M11,T5_M11,U1_M11,ZSPAN_M11,X0_M11,X2_M11,X1_M11
2023-11-29 12:00:00,SystemResetWarning,0827.2,5.00,000.00,018.7,017.4,000.0,027.2,020.0,7.7,0000.0,0001.85,0001.29,0001.13
2023-11-29 12:01:00,SystemResetWarning,0827.1,4.99,000.00,018.7,017.4,000.0,027.2,020.0,7.5,0000.0,0002.08,0001.46,0001.26
2023-11-29 12:02:00,SystemResetWarning,0827.1,5.00,000.00,018.7,017.4,000.0,027.2,020.0,7.6,0000.0,0002.25,0001.60,0001.38
2023-11-29 12:03:00,SystemResetWarning,0827.1,5.00,000.00,018.7,017.4,000.0,027.2,020.0,7.7,0000.0,0002.52,0001.76,0001.50
2023-11-29 12:04:00,SystemResetWarning,0827.2,5.00,000.00,018.6,017.4,000.0,027.2,020.0,7.5,0000.0,0002.67,0001.87,0001.59
2023-11-29 12:05:00,SystemResetWarning,0827.2,5.01,000.00,018.6,017.4,000.0,027.2,020.0,7.6,0000.0,0002.80,0001.96,0001.67
2023-11-29 12:06:00,SystemResetWarning,0827.1,5.00,000.00,018.6,017.5,000.0,027.2,020.0,7.8,0000.0,0002.90,0002.05,0001.75
2023-11-29 12:07:00,SystemResetWarning,0827.1,5.00,000.00,018.6,017.5,000.0,027.2,020.0,7.8,0000.0,0003.37,0002.12,0001.84
2023-11-29 12:08:00,SystemResetWarning,0827.1,5.00,000.00,018.7,017.5,000.0,027.2,020.0,7.6,0000.0,0003.76,0002.21,0001.90
2023-11-29 12:09:00,SystemResetWarning,0827.1,5.00,000.00,018.7,017.5,000.0,027.2,020.0,7.5,0000.0,0003.74,0002.23,0001.93
2023-11-29 12:10:00,SystemResetWarning,0827.1,5.00,000.00,018.7,017.5,000.0,027.2,020.0,7.8,0000.0,0003.70,0002.25,0001.95
2023-11-29 12:11:00,SystemResetWarning,0827.1,5.00,000.00,018.7,017.5,000.0,027.2,020.0,7.8,0000.0,0003.69,0002.24,0001.95
2023-11-29 12:12:00,SystemResetWarning,0827.1,5.00,000.00,018.7,017.5,000.0,027.2,020.0,7.7,0000.0,0003.65,0002.20,0001.95
2023-11-29 12:13:00,SystemResetWarning,0827.1,5.00,000.00,018.7,017.5,000.0,027.2,020.0,7.8,0000.0,0003.77,0002.18,0001.95
2023-11-29 12:14:00,SystemResetWarning,0827.1,5.00,000.00,018.7,017.5,000.0,027.2,020.0,7.9,0000.0,0003.62,0002.10,0001.90
2023-11-29 12:15:00,SystemResetWarning,0827.1,5.00,000.00,018.7,017.5,000.0,027.2,020.0,8.0,0000.0,0003.58,0002.06,0001.85
2023-11-29 12:16:00,SystemResetWarning,0827.1,4.99,000.00,018.7,017.5,000.0,027.2,020.0,8.1,0000.0,0003.60,0002.05,0001.85
2023-11-29 12:17:00,SystemResetWarning,0827.1,5.00,000.00,018.7,017.6,000.0,027.2,020.0,8.1,0000.0,0003.70,0002.07,0001.85
2023-11-29 12:18:00,SystemResetWarning,0827.1,5.00,000.00,018.7,017.6,000.0,027.2,020.0,8.2,0000.0,0003.28,0002.08,0001.86
2023-11-29 12:19:00,SystemResetWarning,0827.1,4.99,000.00,018.7,017.6,000.0,027.2,020.0,8.2,0000.0,0003.12,0002.17,0001.90
2023-11-29 12:20:00,SystemResetWarning,0827.0,5.00,000.00,018.7,017.6,000.0,027.2,020.0,8.2,0000.0,0003.29,0002.26,0001.98
2023-11-29 12:21:00,SystemResetWarning,0827.0,5.00,000.00,018.7,017.6,000.0,027.2,020.0,8.2,0000.0,0003.32,0002.30,0002.02
2023-11-29 12:22:00,SystemResetWarning,0827.0,5.01,000.00,018.7,017.5,000.0,027.2,020.0,8.1,0000.0,0003.33,0002.33,0002.05
2023-11-29 12:23:00,SystemResetWarning,0827.0,5.00,000.00,018.7,017.5,000.0,027.2,020.0,8.0,0000.0,0003.29,0002.33,0002.03
2023-11-29 12:24:00,SystemResetWarning,0827.1,5.00,000.00,018.7,017.5,000.0,027.2,020.0,8.0,0000.0,0003.25,0002.34,0002.04
2023-11-29 12:25:00,SystemResetWarning,0827.1,5.00,000.00,018.7,017.5,000.0,027.2,020.0,8.1,0000.0,0003.33,0002.42,0002.11
2023-11-29 12:26:00,SystemResetWarning,0827.1,5.00,000.00,018.7,017.5,000.0,027.2,020.0,8.1,0000.0,0003.45,0002.49,0002.20
2023-11-29 12:27:00,SystemResetWarning,0827.1,5.00,000.00,018.7,017.5,000.0,027.2,020.0,8.3,0000.0,0003.65,0002.59,0002.26
2023-11-29 12:28:00,SystemResetWarning,0827.1,4.99,000.00,018.7,017.5,000.0,027.2,020.0,8.3,0000.0,0004.08,0002.65,0002.30
2023-11-29 12:29:00,SystemResetWarning,0827.1,5.00,000.00,018.7,017.5,000.0,027.2,020.0,8.2,0000.0,0004.87,0002.69,0002.33
2023-11-29 12:30:00,SystemResetWarning,0827.1,5.01,000.00,018.7,017.5,000.0,027.2,020.0,8.1,0000.0,0004.95,0002.69,0002.35
2023-11-29 12:31:00,SystemResetWarning,0827.1,5.00,000.00,018.7,017.6,000.0,027.2,020.0,8.3,0000.0,0005.83,0002.70,0002.37
2023-11-29 12:32:00,SystemResetWarning,0827.0,5.00,000.00,018.7,017.6,000.0,027.2,020.0,8.4,0000.0,0006.16,0002.76,0002.40
2023-11-29 12:33:00,SystemResetWarning,0827.0,4.99,000.00,018.7,017.6,000.0,027.2,020.0,8.4,0000.0,0006.38,0002.83,0002.45
2023-11-29 12:34:00,SystemResetWarning,0827.0,5.00,000.00,018.7,017.6,000.0,027.2,020.0,8.2,0000.0,0006.45,0002.88,0002.49
2023-11-29 12:35:00,SystemResetWarning,0827.0,5.01,000.00,018.7,017.6,000.0,027.2,020.0,8.2,0000.0,0006.38,0002.89,0002.51
2023-11-29 12:36:00,SystemResetWarning,0827.0,5.01,000.00,018.7,017.6,000.0,027.2,020.0,8.3,0000.0,0006.36,0002.89,0002.51
2023-11-29 12:37:00,SystemResetWarning,0827.0,5.00,000.00,018.7,017.6,000.0,027.2,020.0,8.2,0000.0,0006.43,0002.88,0002.50
2023-11-29 12:38:00,SystemResetWarning,0826.9,5.00,000.00,018.7,017.5,000.0,027.2,020.0,8.1,0000.0,0006.32,0002.87,0002.50
2023-11-29 12:39:00,SystemResetWarning,0827.0,4.99,000.00,018.7,017.5,000.0,027.2,020.0,8.2,0000.0,0005.98,0002.86,0002.52
2023-11-29 12:40:00,SystemResetWarning,0827.1,4.99,000.00,018.7,017.5,000.0,027.2,020.0,8.2,0000.0,0005.37,0002.88,0002.54
2023-11-29 12:41:00,SystemResetWarning,0827.1,5.00,000.00,018.7,017.5,000.0,027.2,020.0,8.3,0000.0,0005.17,0002.90,0002.55
2023-11-29 12:42:00,SystemResetWarning,0827.0,5.01,000.00,018.7,017.5,000.0,027.2,020.0,8.3,0000.0,0004.99,0002.93,0002.57
2023-11-29 12:43:00,SystemResetWarning,0827.0,5.01,000.00,018.7,017.6,000.0,027.1,020.3,8.3,0000.0,0004.33,0002.90,0002.56
2023-11-29 12:44:00,SystemResetWarning,0827.0,5.01,000.00,018.8,018.3,000.0,027.1,020.7,8.3,0000.0,0004.10,0002.86,0002.56
2023-11-29 12:45:00,SystemResetWarning,0827.0,4.98,000.00,018.9,018.5,000.0,027.1,020.6,8.2,0000.0,0004.05,0002.86,0002.57
2023-11-29 12:46:00,SystemResetWarning,0827.0,5.01,000.00,018.9,018.5,000.0,027.1,020.3,8.2,0000.0,0004.10,0002.90,0002.58
2023-11-29 12:47:00,SystemResetWarning,0827.0,5.01,000.00,018.9,018.4,000.0,027.1,020.2,8.2,0000.0,0004.11,0002.91,0002.60
2023-11-29 12:48:00,SystemResetWarning,0827.0,5.01,000.00,018.8,018.3,000.0,027.1,020.0,8.3,0000.0,0004.02,0002.91,0002.60
2023-11-29 12:49:00,SystemResetWarning,0827.0,5.00,000.00,018.8,018.2,000.0,027.1,020.0,8.4,0000.0,0003.89,0002.89,0002.61
2023-11-29 12:50:00,SystemResetWarning,0826.9,4.99,000.00,018.8,018.1,000.0,027.2,020.0,8.4,0000.0,0003.92,0002.88,0002.59
2023-11-29 12:51:00,SystemResetWarning,0826.9,4.99,000.00,018.8,018.0,000.0,027.2,020.0,8.5,0000.0,0003.91,0002.86,0002.58
2023-11-29 12:52:00,SystemResetWarning,0826.9,5.00,000.00,018.7,017.9,000.0,027.2,020.0,8.5,0000.0,0003.85,0002.84,0002.57
2023-11-29 12:53:00,SystemResetWarning,0826.9,5.00,000.00,018.7,017.8,000.0,027.2,020.0,8.6,0000.0,0003.43,0002.80,0002.55
2023-11-29 12:54:00,SystemResetWarning,0826.9,5.00,000.00,018.7,017.8,000.0,027.2,020.0,8.7,0000.0,0003.38,0002.80,0002.56
2023-11-29 12:55:00,SystemResetWarning,0826.8,5.00,000.00,018.7,017.7,000.0,027.2,020.0,8.7,0000.0,0003.50,0002.86,0002.58
2023-11-29 12:56:00,SystemResetWarning,0826.8,5.00,000.00,018.7,017.7,000.0,027.2,020.0,8.8,0000.0,0003.63,0002.93,0002.59
2023-11-29 12:57:00,SystemResetWarning,0826.8,5.00,000.00,018.7,017.6,000.0,027.2,020.0,8.9,0000.0,0003.71,0002.96,0002.61
2023-11-29 12:58:00,SystemResetWarning,0826.8,5.00,000.00,018.7,017.6,000.0,027.2,020.0,8.9,0000.0,0003.77,0003.00,0002.64
2023-11-29 12:59:00,SystemResetWarning,0826.8,5.00,000.00,018.7,017.6,000.0,027.2,020.0,9.0,0000.0,0003.86,0003.06,0002.68
